"indice_tiempo","argentina","resto_del_mundo"
"1997-01-01","288302","2215792"
"1997-02-01","563307","3671814"
"1997-03-01","638545","4065577"
"1997-04-01","715892","4784969"
"1997-05-01","638448","4061622"
"1997-06-01","712613","4469030"
"1997-07-01","750381","5012720"
"1997-08-01","705848","4638279"
"1997-09-01","755092","4651905"
"1997-10-01","744683","4880114"
"1997-11-01","698539","4545194"
"1997-12-01","710880","4565294"
"1998-01-01","562735","4060123"
"1998-02-01","566527","3364652"
"1998-03-01","707901","4447925"
"1998-04-01","731055","3884438"
"1998-05-01","670603","4053791"
"1998-06-01","706682","3980527"
"1998-07-01","741843","4647064"
"1998-08-01","608094","3534524"
"1998-09-01","853190","4867660"
"1998-10-01","729642","4711866"
"1998-11-01","574004","4149123"
"1998-12-01","568804","3874135"
"1999-01-01","492098","3164555"
"1999-02-01","365492","2781322"
"1999-03-01","443279","3601676"
"1999-04-01","438755","3229292"
"1999-05-01","541352","3541163"
"1999-06-01","486401","3969672"
"1999-07-01","499153","3525142"
"1999-08-01","529412","3928666"
"1999-09-01","535530","3694468"
"1999-10-01","485256","3964054"
"1999-11-01","490944","4036461"
"1999-12-01","503295","3934204"
"2000-01-01","428520","3135445"
"2000-02-01","509155","3533713"
"2000-03-01","565857","3878521"
"2000-04-01","514449","3473653"
"2000-05-01","560741","4125023"
"2000-06-01","629339","3961439"
"2000-07-01","611745","4258001"
"2000-08-01","654121","4756959"
"2000-09-01","612784","4440802"
"2000-10-01","603486","4633324"
"2000-11-01","583226","4560501"
"2000-12-01","576409","4283908"
"2001-01-01","618380","4379976"
"2001-02-01","463322","3530073"
"2001-03-01","578574","4857723"
"2001-04-01","516557","4083645"
"2001-05-01","615544","4527206"
"2001-06-01","593555","4154820"
"2001-07-01","547927","4295691"
"2001-08-01","511090","4569834"
"2001-09-01","452813","3699660"
"2001-10-01","480216","4263052"
"2001-11-01","451607","3753734"
"2001-12-01","371926","3127638"
"2002-01-01","372357","3419996"
"2002-02-01","414948","2976100"
"2002-03-01","419496","3235506"
"2002-04-01","441158","3688790"
"2002-05-01","452141","3604746"
"2002-06-01","350543","3041985"
"2002-07-01","447026","4564952"
"2002-08-01","357523","3806234"
"2002-09-01","317932","3675172"
"2002-10-01","402307","3873378"
"2002-11-01","403902","3437636"
"2002-12-01","360753","3075581"
"2003-01-01","426832","3226744"
"2003-02-01","420800","3465206"
"2003-03-01","388556","3313483"
"2003-04-01","381583","3612729"
"2003-05-01","388368","3471193"
"2003-06-01","338716","3178685"
"2003-07-01","334676","3702463"
"2003-08-01","342740","3383362"
"2003-09-01","408290","4208105"
"2003-10-01","440672","4580165"
"2003-11-01","373603","3887759"
"2003-12-01","427577","3567623"
"2004-01-01","387518","3820169"
"2004-02-01","396919","3351758"
"2004-03-01","486396","4850557"
"2004-04-01","382724","4244862"
"2004-05-01","419533","4410697"
"2004-06-01","478485","5044670"
"2004-07-01","469232","5053311"
"2004-08-01","475296","5142350"
"2004-09-01","506114","5238410"
"2004-10-01","489208","5352032"
"2004-11-01","570793","5498664"
"2004-12-01","507193","5167617"
"2005-01-01","428282","4821446"
"2005-02-01","480085","4492420"
"2005-03-01","474010","5425489"
"2005-04-01","514111","4808179"
"2005-05-01","555703","5807044"
"2005-06-01","531635","5626446"
"2005-07-01","503268","5545199"
"2005-08-01","553517","7131571"
"2005-09-01","523575","5779445"
"2005-10-01","547589","5670666"
"2005-11-01","603142","6094491"
"2005-12-01","528803","6022274"
"2006-01-01","538122","5902949"
"2006-02-01","472890","5489718"
"2006-03-01","612873","7091227"
"2006-04-01","596610","6138194"
"2006-05-01","637099","6635217"
"2006-06-01","631243","6721493"
"2006-07-01","777187","7196410"
"2006-08-01","702836","8397616"
"2006-09-01","729447","7367656"
"2006-10-01","839638","7880714"
"2006-11-01","721397","7929091"
"2006-12-01","792792","6390434"
"2007-01-01","671830","7766449"
"2007-02-01","712617","6506200"
"2007-03-01","897842","8605510"
"2007-04-01","736173","7512355"
"2007-05-01","848577","8925247"
"2007-06-01","825040","8459826"
"2007-07-01","891832","9871570"
"2007-08-01","935040","10615254"
"2007-09-01","864123","9835582"
"2007-10-01","894961","11453653"
"2007-11-01","1086349","10955570"
"2007-12-01","1038769","9565014"
"2008-01-01","1129324","11227283"
"2008-02-01","1143767","10826203"
"2008-03-01","1021708","10618824"
"2008-04-01","940144","11403593"
"2008-05-01","1063304","14177083"
"2008-06-01","941347","14941100"
"2008-07-01","1095349","16051719"
"2008-08-01","1147987","16313038"
"2008-09-01","1454902","15819285"
"2008-10-01","1418502","15776975"
"2008-11-01","1030499","12074143"
"2008-12-01","872327","10630182"
"2009-01-01","607979","9700194"
"2009-02-01","665651","7157489"
"2009-03-01","915305","9142565"
"2009-04-01","852092","7776583"
"2009-05-01","890241","8479901"
"2009-06-01","1054947","8821894"
"2009-07-01","968408","10275540"
"2009-08-01","882671","9915948"
"2009-09-01","1070581","11492202"
"2009-10-01","1101474","11675831"
"2009-11-01","1062311","10995178"
"2009-12-01","1210723","11096443"
"2010-01-01","932488","10571283"
"2010-02-01","999323","10814120"
"2010-03-01","1174816","13879463"
"2010-04-01","1161289","12717744"
"2010-05-01","1122175","13122221"
"2010-06-01","1321026","13507921"
"2010-07-01","1250919","15079811"
"2010-08-01","1288767","15540068"
"2010-09-01","1352722","16406725"
"2010-10-01","1174632","15377596"
"2010-11-01","1318438","16086066"
"2010-12-01","1336822","14238536"
"2011-01-01","1182014","13635833"
"2011-02-01","1260119","14286789"
"2011-03-01","1265348","16469914"
"2011-04-01","1495291","16822510"
"2011-05-01","1293558","18386245"
"2011-06-01","1494897","17756238"
"2011-07-01","1525203","17585720"
"2011-08-01","1438454","20822685"
"2011-09-01","1432650","18779374"
"2011-10-01","1530519","18244597"
"2011-11-01","1643023","19559810"
"2011-12-01","1344902","16988530"
"2012-01-01","1349806","16097614"
"2012-02-01","946974","15387478"
"2012-03-01","1285268","17600379"
"2012-04-01","1350667","17348394"
"2012-05-01","1372070","18892049"
"2012-06-01","1048867","17506623"
"2012-07-01","1334169","16804981"
"2012-08-01","1582993","17576165"
"2012-09-01","1322939","16129644"
"2012-10-01","1665867","18579256"
"2012-11-01","1607130","19066256"
"2012-12-01","1566614","15944518"
"2013-01-01","1275256","18738053"
"2013-02-01","1429157","15405185"
"2013-03-01","1464138","17674462"
"2013-04-01","1591069","20038934"
"2013-05-01","1496153","19552070"
"2013-06-01","1542496","17288128"
"2013-07-01","1484645","21228218"
"2013-08-01","1279853","18928312"
"2013-09-01","1162513","17719137"
"2013-10-01","1383455","21666146"
"2013-11-01","1178035","17951357"
"2013-12-01","1175894","17028567"
"2014-01-01","981392","19109512"
"2014-02-01","1093553","16967863"
"2014-03-01","1218456","16290261"
"2014-04-01","1263786","17949389"
"2014-05-01","1256830","18784329"
"2014-06-01","1220247","16899005"
"2014-07-01","1227340","20231212"
"2014-08-01","1077836","18224457"
"2014-09-01","1308328","19251010"
"2014-10-01","1167907","18341635"
"2014-11-01","1139494","16932542"
"2014-12-01","1187677","16003782"
"2015-01-01","782891","16088023"
"2015-02-01","813967","14119093"
"2015-03-01","1106437","15412645"
"2015-04-01","942124","13722802"
"2015-05-01","873370","13138478"
"2015-06-01","1037300","14062940"
"2015-07-01","893548","15244233"
"2015-08-01","776629","12017301"
"2015-09-01","751003","12447692"
"2015-10-01","847831","13205999"
"2015-11-01","839980","11767236"
"2015-12-01","619360","9948116"
"2016-01-01","486520","9836298"
"2016-02-01","617114","9692889"
"2016-03-01","844502","10716179"
"2016-04-01","779880","9730307"
"2016-05-01","720546","10417643"
"2016-06-01","775940","11995403"
"2016-07-01","753867","10999990"
"2016-08-01","796628","12052453"
"2016-09-01","788759","11205909"
"2016-10-01","718532","10661062"
"2016-11-01","885759","10580518"
"2016-12-01","916458","10612676"
"2017-01-01","680426","11517390"
"2017-02-01","637325","10275947"
"2017-03-01","834980","12102692"
"2017-04-01","700861","10015794"
"2017-05-01","909282","11219733"
"2017-06-01","834869","11760364"
"2017-07-01","714412","11758994"
"2017-08-01","849231","13030002"
"2017-09-01","824707","12663621"
"2017-10-01","871526","12807317"
"2017-11-01","829812","12312695"
"2017-12-01","747762","11849754"
"2018-01-01","726640","13476096"
"2018-02-01","750072","13658963"
"2018-03-01","875946","12932740"
"2018-04-01","972682","12819419"
"2018-05-01","793584","12467169"
"2018-06-01","1031225","13293460"
"2018-07-01","950932","17700076"
"2018-08-01","1177690","17600143"
"2018-09-01","932510","13183321"
"2018-10-01","942960","15162562"
"2018-11-01","929782","15930576"
